Regional Weather Roundup
Issued by NWS

Home | Current Version | Previous Version | Text Only | Print | Product List | Glossary Off
Versions: 1 2 3 4 5 6 7 8 9 10 11 12 13 14 15 16 17 18 19 20 21 22 23 24 25 26 27 28 29 30 31 32 33 34 35 36 37 38 39 40 41 42 43 44 45 46 47 48 49 50

000
ASUS45 KCYS 261910
RWRWY

WYOMING REGIONAL WEATHER ROUNDUP
NATIONAL WEATHER SERVICE CHEYENNE WY
100 PM MDT TUE AUG 26 2014

NOTE:  "FAIR" INDICATES FEW OR NO CLOUDS BELOW 12,000 FEET
WITH NO SIGNIFICANT WEATHER AND/OR OBSTRUCTIONS TO VISIBILITY.

WYZ001-262000-
YELLOWSTONE NATIONAL PARK

CITY           SKY/WX    TMP DP  RH WIND       PRES   REMARKS
LK YELLOWSTONE   N/A     53  43  68 CALM      30.37S
W YELLOWSTONE  NOT AVBL

$$
WYZ002>013-054>058-071-098>099-262000-
NORTHERN WYOMING

CITY           SKY/WX    TMP DP  RH WIND       PRES   REMARKS
JACKSON        MOSUNNY   64  46  52 S6        30.28F
CODY           MOSUNNY   68  50  52 N6        30.19F
GREYBULL       SUNNY     73  47  39 VRB7      30.15F
WORLAND        SUNNY     70  51  51 VRB3      30.15F
SHERIDAN       SUNNY     73  47  39 MISG      30.16S
BUFFALO        SUNNY     71  47  42 N13       30.19F
GILLETTE       SUNNY     73  50  44 N12       30.15F
HULETT         FAIR      72  54  53 MISG      30.17
NEWCASTLE      FAIR      72  50  46 MISG      30.16

$$
WYZ014>020-022>026-101>103-262000-
CENTRAL WYOMING

CITY           SKY/WX    TMP DP  RH WIND       PRES   REMARKS
BIG PINEY      MOSUNNY   63  47  55 SW6       30.32F
PINEDALE       CLEAR     63  41  45 CALM      30.33S
DUBOIS         FAIR      68  34  28 N12       30.26S
LANDER         SUNNY     70  47  43 VRB5      30.20F
RIVERTON       SUNNY     67  49  52 VRB6      30.21F
CASPER         MOSUNNY   76  48  37 SW13      30.17F
DOUGLAS        SUNNY     77  47  34 NW8       30.18F

$$
WYZ021-027>030-104>119-262000-
SOUTHERN WYOMING

CITY           SKY/WX    TMP DP  RH WIND       PRES   REMARKS
EVANSTON       MOSUNNY   67  45  45 SW9       30.30F
KEMMERER       CLEAR     63  43  48 S6        30.34S
FORT BRIDGER   FAIR      65  46  49 CALM      30.33F
ROCK SPRINGS   PTSUNNY   65  41  41 VRB5      30.29F
DIXON          FAIR      67  50  54 CALM      30.31F
RAWLINS        SUNNY     71  47  42 SW15      30.28F
SARATOGA       FAIR      68  50  52 MISG      30.31F
LARAMIE        PTSUNNY   71  43  36 W12G17    30.30F
CHEYENNE       PTSUNNY   69  55  60 S16       30.26F
TORRINGTON     MOSUNNY   81  55  40 SW8       30.12F
PINE BLUFFS    FAIR      77  54  44 S10G16    30.22F

$$


USA.gov is the U.S. government's official web portal to all federal, state and local government web resources and services.